period_start,C,m1,H,J0,J1,J2,J3,J4,J5,JA,JB,JC,JD,JJ,JK,JN,#
2013-07-09 00:00:48,-0.05,0.01,0.00,24.45,28.72,31.08,5.82,31.50,1001.44,2056.64,3518.50,3356.00,3645.99,350.03,317.60,4.87,0000 0000 0000 0000 000000
2013-07-09 00:01:48,0.02,0.01,0.00,24.45,28.72,31.08,5.75,31.46,1001.45,2056.56,3518.31,3356.00,3645.99,350.41,317.95,4.88,0000 0000 0000 0000 000000
2013-07-09 00:02:48,-0.04,0.01,0.00,24.45,28.72,31.07,5.87,31.33,1001.46,2056.51,3518.22,3356.00,3645.98,350.11,317.68,4.89,0000 0000 0000 0000 000000
2013-07-09 00:03:49,-0.03,0.01,0.00,24.46,28.72,31.08,5.82,31.33,1001.46,2056.47,3518.31,3356.01,3645.97,350.06,317.74,4.89,0000 0000 0000 0000 000000
2013-07-09 00:04:49,-0.05,0.01,0.00,24.45,28.73,31.08,6.00,31.54,1001.46,2056.32,3518.30,3356.00,3645.96,350.63,317.80,4.90,0000 0000 0000 0000 000000
2013-07-09 00:05:49,-0.11,0.01,0.00,24.47,28.74,31.08,5.90,31.42,1001.44,2056.21,3518.26,3356.00,3645.98,349.98,317.19,4.90,0000 0000 0000 0000 000000
2013-07-09 00:06:49,-0.05,0.01,0.00,24.47,28.75,31.07,5.75,31.54,1001.46,2056.17,3518.20,3356.00,3645.95,349.76,317.33,4.91,0000 0000 0000 0000 000000
2013-07-09 00:07:49,-0.02,0.01,0.00,24.47,28.75,31.07,6.01,31.54,1001.46,2056.13,3518.11,3356.00,3645.92,350.19,317.47,4.92,0000 0000 0000 0000 000000
2013-07-09 00:08:50,-0.01,0.01,0.00,24.47,28.75,31.09,5.95,31.42,1001.46,2056.17,3518.13,3356.00,3645.90,350.09,317.66,4.92,0000 0000 0000 0000 000000
2013-07-09 00:09:50,0.02,0.01,0.00,24.49,28.75,31.09,5.89,31.50,1001.46,2056.15,3518.12,3356.00,3645.91,349.68,316.79,4.93,0000 0000 0000 0000 000000
2013-07-09 00:10:50,-0.00,0.01,0.00,24.49,28.75,31.08,5.87,31.46,1001.41,2056.10,3518.05,3356.00,3645.85,350.77,318.18,4.93,0000 0000 0000 0000 000000
2013-07-09 00:11:50,-0.01,0.01,0.00,24.49,28.75,31.06,6.12,31.54,1001.32,2056.14,3518.03,3356.00,3645.77,351.13,318.58,4.94,0000 0000 0000 0000 000000
2013-07-09 00:12:51,0.05,0.01,0.00,24.49,28.75,31.08,5.86,31.63,1001.35,2056.10,3518.06,3356.00,3645.78,350.32,317.80,4.94,0000 0000 0000 0000 000000
2013-07-09 00:13:51,-0.04,0.01,0.00,24.48,28.76,31.10,5.93,31.46,1001.38,2056.07,3518.03,3356.00,3645.60,350.04,317.56,4.95,0000 0000 0000 0000 000000
2013-07-09 00:14:51,0.00,0.01,0.00,24.50,28.77,31.11,5.99,31.63,1001.36,2056.05,3518.01,3356.00,3645.37,350.21,317.69,4.96,0000 0000 0000 0000 000000
2013-07-09 00:15:51,0.01,0.01,0.00,24.49,28.77,31.11,5.79,31.46,1001.38,2056.04,3518.00,3355.98,3645.22,349.81,317.33,4.96,0000 0000 0000 0000 000000
2013-07-09 00:16:52,0.01,0.01,0.00,24.49,28.77,31.10,5.90,31.50,1001.43,2056.03,3518.00,3355.99,3645.20,350.28,317.78,4.97,0000 0000 0000 0000 000000
2013-07-09 00:17:52,0.00,0.01,0.00,24.49,28.77,31.09,5.88,31.38,1001.46,2056.05,3518.00,3355.99,3645.18,350.54,317.77,4.97,0000 0000 0000 0000 000000
2013-07-09 00:18:52,0.00,0.01,0.00,24.49,28.77,31.10,5.93,31.54,1001.47,2056.03,3518.00,3355.99,3645.11,350.21,317.47,4.98,0000 0000 0000 0000 000000
2013-07-09 00:19:52,0.00,0.01,0.00,24.49,28.77,31.12,5.92,31.33,1001.48,2056.03,3518.00,3355.98,3645.08,350.37,317.94,4.99,0000 0000 0000 0000 000000
2013-07-09 00:20:53,0.01,0.01,0.00,24.49,28.77,31.11,5.93,31.42,1001.47,2056.02,3518.00,3355.98,3645.05,349.96,317.51,4.99,0000 0000 0000 0000 000000
2013-07-09 00:21:53,-0.01,0.01,0.00,24.50,28.77,31.12,5.85,31.67,1001.46,2056.01,3518.00,3355.98,3645.05,349.91,317.43,5.00,0000 0000 0000 0000 000000
2013-07-09 00:22:53,-0.01,0.01,0.00,24.49,28.78,31.13,5.97,31.50,1001.43,2056.00,3518.00,3355.88,3645.03,349.93,317.46,5.00,0000 0000 0000 0000 000000
2013-07-09 00:23:53,0.02,0.01,0.00,24.49,28.78,31.12,5.89,31.54,1001.45,2056.00,3518.00,3355.82,3645.02,350.63,318.11,5.01,0000 0000 0000 0000 000000
2013-07-09 00:24:54,0.01,0.01,0.00,24.49,28.79,31.13,5.73,31.42,1001.45,2056.00,3518.00,3355.82,3645.00,349.04,316.66,5.01,0000 0000 0000 0000 000000
2013-07-09 00:25:54,0.00,0.01,0.00,24.51,28.80,31.12,5.83,31.50,1001.46,2056.00,3518.00,3355.72,3645.00,350.03,317.26,5.02,0000 0000 0000 0000 000000
2013-07-09 00:26:54,0.02,0.01,0.00,24.51,28.80,31.13,5.88,31.42,1001.47,2056.01,3518.00,3355.55,3645.01,350.47,317.83,5.03,0000 0000 0000 0000 000000
2013-07-09 00:27:54,0.03,0.01,0.00,24.51,28.80,31.12,6.00,31.46,1001.44,2056.01,3517.98,3355.54,3645.00,350.36,318.13,5.03,0000 0000 0000 0000 000000
2013-07-09 00:28:55,0.00,0.01,0.00,24.51,28.80,31.14,5.82,31.33,1001.46,2056.01,3517.99,3355.44,3645.00,349.36,317.13,5.04,0000 0000 0000 0000 000000
2013-07-09 00:29:55,0.02,0.01,0.00,24.52,28.80,31.14,5.96,31.63,1001.43,2056.00,3517.98,3355.24,3645.00,349.87,317.38,5.04,0000 0000 0000 0000 000000
2013-07-09 00:30:55,0.03,0.01,0.00,24.50,28.80,31.13,5.90,31.54,1001.46,2056.00,3517.98,3355.16,3645.00,350.32,317.88,5.05,0000 0000 0000 0000 000000
2013-07-09 00:31:56,0.00,0.01,0.00,24.48,28.80,31.14,6.03,31.63,1001.48,2056.00,3517.99,3355.13,3645.00,350.41,317.95,5.06,0000 0000 0000 0000 000000
2013-07-09 00:32:56,0.01,0.01,0.00,24.47,28.80,31.12,6.02,31.29,1001.48,2056.00,3517.97,3355.12,3645.00,351.36,318.80,5.06,0000 0000 0000 0000 000000
2013-07-09 00:33:56,0.00,0.01,0.00,24.47,28.80,31.13,5.89,31.54,1001.48,2056.00,3517.97,3355.09,3645.00,349.32,317.20,5.07,0000 0000 0000 0000 000000
2013-07-09 00:34:56,0.01,0.01,0.00,24.45,28.80,31.15,5.92,31.58,1001.48,2056.00,3517.97,3355.13,3645.00,349.51,317.14,5.07,0000 0000 0000 0000 000000
2013-07-09 00:35:56,-0.01,0.01,0.00,24.44,28.82,31.16,5.91,31.67,1001.48,2056.00,3517.97,3355.22,3645.00,350.19,317.77,5.08,0000 0000 0000 0000 000000
2013-07-09 00:36:57,-0.01,0.01,0.00,24.40,28.82,31.17,5.82,31.42,1001.48,2056.00,3517.98,3355.17,3645.00,349.37,317.08,5.09,0000 0000 0000 0000 000000
2013-07-09 00:37:57,0.01,0.01,0.00,24.38,28.82,31.14,5.95,31.54,1001.48,2056.00,3517.98,3355.15,3645.00,350.02,317.29,5.09,0000 0000 0000 0000 000000
2013-07-09 00:38:57,0.00,0.01,0.00,24.36,28.82,31.14,5.84,31.46,1001.47,2056.00,3517.97,3355.10,3645.00,349.76,317.46,5.10,0000 0000 0000 0000 000000
2013-07-09 00:39:57,0.01,0.01,0.00,24.34,28.82,31.13,5.69,31.46,1001.47,2056.00,3517.93,3355.04,3645.00,350.03,317.96,5.10,0000 0000 0000 0000 000000
2013-07-09 00:40:57,0.01,0.01,0.00,24.31,28.82,31.14,5.88,31.50,1001.47,2056.00,3517.90,3355.03,3644.99,349.73,317.15,5.11,0000 0000 0000 0000 000000
2013-07-09 00:41:58,0.00,0.01,0.00,24.30,28.82,31.17,5.88,31.46,1001.46,2056.00,3517.87,3355.04,3644.99,350.11,317.79,5.11,0000 0000 0000 0000 000000
2013-07-09 00:42:58,0.00,0.01,0.00,24.27,28.82,31.20,5.81,31.42,1001.46,2056.00,3517.77,3355.04,3644.99,349.62,317.71,5.12,0000 0000 0000 0000 000000
2013-07-09 00:43:58,0.01,0.01,0.00,24.27,28.82,31.21,5.90,31.42,1001.46,2056.00,3517.76,3355.09,3644.99,349.37,317.20,5.13,0000 0000 0000 0000 000000
2013-07-09 00:44:59,-0.00,0.01,0.00,24.26,28.82,31.21,5.99,31.58,1001.48,2056.00,3517.82,3355.10,3644.99,349.98,317.95,5.13,0000 0000 0000 0000 000000
2013-07-09 00:45:59,-0.01,0.01,0.00,24.23,28.82,31.22,5.93,31.54,1001.48,2056.00,3517.74,3355.07,3644.99,350.04,317.97,5.14,0000 0000 0000 0000 000000
2013-07-09 00:46:59,0.00,0.01,0.00,24.22,28.82,31.25,5.85,31.54,1001.48,2056.00,3517.75,3355.08,3644.99,349.98,317.45,5.14,0000 0000 0000 0000 000000
2013-07-09 00:48:00,0.00,0.01,0.00,24.21,28.82,31.24,5.84,31.58,1001.48,2056.00,3517.83,3355.10,3644.99,349.90,317.75,5.15,0000 0000 0000 0000 000000
2013-07-09 00:49:00,-0.00,0.01,0.00,24.19,28.82,31.25,5.97,31.50,1001.48,2056.00,3517.58,3355.07,3644.99,350.21,317.63,5.16,0000 0000 0000 0000 000000
2013-07-09 00:50:00,0.02,0.01,0.00,24.17,28.82,31.27,5.90,31.54,1001.48,2056.00,3517.58,3355.09,3644.99,350.47,318.23,5.16,0000 0000 0000 0000 000000
2013-07-09 00:51:00,0.01,0.01,0.00,24.16,28.82,31.29,5.98,31.50,1001.48,2056.00,3517.45,3355.08,3644.99,349.79,317.94,5.17,0000 0000 0000 0000 000000
2013-07-09 00:52:00,0.02,0.01,0.00,24.14,28.83,31.30,5.85,31.46,1001.48,2056.00,3517.25,3355.06,3644.98,350.25,318.15,5.17,0000 0000 0000 0000 000000
2013-07-09 00:53:01,0.01,0.01,0.00,24.10,28.82,31.32,6.02,31.71,1001.48,2056.00,3517.16,3355.03,3644.98,350.47,318.38,5.18,0000 0000 0000 0000 000000
2013-07-09 00:54:01,0.02,0.01,0.00,24.09,28.82,31.37,5.92,31.67,1001.48,2055.99,3517.11,3355.02,3644.98,350.32,318.17,5.18,0000 0000 0000 0000 000000
2013-07-09 00:55:01,0.00,0.01,0.00,24.09,28.82,31.36,5.93,31.54,1001.48,2055.99,3517.08,3355.01,3644.99,350.81,318.36,5.19,0000 0000 0000 0000 000000
2013-07-09 00:56:01,0.00,0.01,0.00,24.07,28.82,31.36,5.77,31.58,1001.48,2055.99,3517.06,3355.03,3644.98,349.59,317.49,5.20,0000 0000 0000 0000 000000
2013-07-09 00:57:02,0.00,0.01,0.00,24.07,28.83,31.37,5.85,31.29,1001.48,2055.99,3517.04,3355.01,3644.97,350.61,318.69,5.20,0000 0000 0000 0000 000000
2013-07-09 00:58:02,0.00,0.01,0.00,24.06,28.82,31.41,5.88,31.50,1001.48,2055.99,3517.03,3355.01,3644.94,349.66,317.70,5.21,0000 0000 0000 0000 000000
2013-07-09 00:59:02,0.00,0.01,0.00,24.06,28.82,31.41,5.90,31.38,1001.48,2055.99,3517.02,3355.01,3644.95,350.38,318.26,5.21,0000 0000 0000 0000 000000
2013-07-09 01:00:03,0.00,0.01,0.00,24.05,28.82,31.38,5.93,31.58,1001.48,2055.99,3517.02,3355.01,3644.98,350.70,318.60,5.22,0000 0000 0000 0000 000000
2013-07-09 01:01:03,0.00,0.01,0.00,24.02,28.82,31.34,5.82,31.42,1001.48,2055.99,3517.00,3355.00,3644.99,349.93,317.57,5.23,0000 0000 0000 0000 000000
2013-07-09 01:02:03,0.00,0.01,0.00,24.02,28.82,31.41,6.03,31.63,1001.48,2055.99,3517.01,3355.00,3644.98,350.43,318.44,5.23,0000 0000 0000 0000 000000
2013-07-09 01:03:04,0.00,0.01,0.00,24.05,28.82,31.40,5.93,31.67,1001.48,2055.99,3517.02,3355.01,3644.97,350.63,318.45,5.24,0000 0000 0000 0000 000000
2013-07-09 01:04:04,0.00,0.01,0.00,24.07,28.82,31.38,5.85,31.58,1001.49,2055.99,3517.07,3355.00,3644.94,349.57,317.70,5.24,0000 0000 0000 0000 000000
2013-07-09 01:05:04,0.00,0.01,0.00,24.09,28.82,31.39,5.97,31.63,1001.48,2055.99,3517.05,3355.00,3644.96,350.08,317.86,5.25,0000 0000 0000 0000 000000
2013-07-09 01:06:04,0.00,0.01,0.00,24.11,28.82,31.38,5.82,31.75,1001.48,2055.99,3517.03,3355.02,3644.97,349.89,318.12,5.26,0000 0000 0000 0000 000000
2013-07-09 01:07:05,0.00,0.01,0.00,24.12,28.82,31.41,5.89,31.58,1001.48,2055.99,3517.09,3355.02,3644.99,349.32,317.21,5.26,0000 0000 0000 0000 000000
2013-07-09 01:08:05,0.00,0.01,0.00,24.13,28.82,31.38,5.88,31.71,1001.49,2055.99,3517.07,3355.01,3644.99,349.93,317.87,5.27,0000 0000 0000 0000 000000
2013-07-09 01:09:05,0.01,0.01,0.00,24.15,28.82,31.32,5.81,31.54,1001.48,2055.99,3517.03,3355.03,3644.98,349.51,317.47,5.27,0000 0000 0000 0000 000000
2013-07-09 01:10:05,0.01,0.01,0.00,24.16,28.82,31.32,5.93,31.54,1001.48,2055.99,3517.07,3355.04,3644.98,350.19,318.07,5.28,0000 0000 0000 0000 000000
2013-07-09 01:11:05,0.00,0.01,0.00,24.18,28.82,31.32,5.85,31.46,1001.48,2055.99,3517.05,3355.02,3644.98,350.15,318.01,5.28,0000 0000 0000 0000 000000
2013-07-09 01:12:06,0.00,0.01,0.00,24.20,28.82,31.30,5.93,31.54,1001.48,2055.99,3517.07,3355.03,3644.99,350.48,318.30,5.29,0000 0000 0000 0000 000000
2013-07-09 01:13:06,-0.01,0.01,0.00,24.21,28.82,31.29,5.91,31.71,1001.49,2055.99,3517.07,3355.02,3644.98,349.40,316.96,5.30,0000 0000 0000 0000 000000
2013-07-09 01:14:06,-0.01,0.01,0.00,24.22,28.82,31.26,5.93,31.75,1001.48,2055.99,3517.07,3355.01,3644.98,349.27,317.17,5.30,0000 0000 0000 0000 000000
2013-07-09 01:15:06,0.00,0.01,0.00,24.24,28.82,31.25,5.94,31.79,1001.48,2055.99,3517.03,3355.02,3644.99,350.11,318.38,5.31,0000 0000 0000 0000 000000
2013-07-09 01:16:07,0.01,0.01,0.00,24.25,28.81,31.23,5.85,31.63,1001.48,2055.99,3517.03,3355.02,3644.95,350.09,318.16,5.31,0000 0000 0000 0000 000000
2013-07-09 01:17:07,0.01,0.01,0.00,24.27,28.81,31.19,5.83,31.54,1001.48,2055.99,3517.05,3355.00,3644.96,349.69,317.61,5.32,0000 0000 0000 0000 000000
2013-07-09 01:18:07,0.00,0.01,0.00,24.27,28.81,31.19,5.90,31.75,1001.48,2055.99,3517.08,3355.03,3644.97,350.44,318.17,5.33,0000 0000 0000 0000 000000
2013-07-09 01:19:07,-0.01,0.01,0.00,24.28,28.80,31.17,5.87,31.71,1001.49,2055.99,3517.17,3355.04,3644.99,350.11,317.88,5.33,0000 0000 0000 0000 000000
2013-07-09 01:20:08,-0.01,0.01,0.00,24.29,28.80,31.17,5.96,31.79,1001.48,2055.99,3517.10,3355.03,3644.93,350.54,318.31,5.34,0000 0000 0000 0000 000000
2013-07-09 01:21:08,0.00,0.01,0.00,24.30,28.80,31.19,5.83,31.58,1001.48,2055.99,3517.07,3355.03,3644.94,349.99,317.79,5.34,0000 0000 0000 0000 000000
2013-07-09 01:22:08,0.00,0.01,0.00,24.32,28.80,31.17,5.85,31.79,1001.50,2055.99,3517.08,3355.01,3644.97,349.11,317.31,5.35,0000 0000 0000 0000 000000
2013-07-09 01:23:08,0.00,0.01,0.00,24.34,28.80,31.14,6.03,31.58,1001.48,2055.99,3517.06,3355.00,3644.92,350.19,318.29,5.35,0000 0000 0000 0000 000000
2013-07-09 01:24:09,0.01,0.01,0.00,24.36,28.80,31.12,5.88,31.58,1001.49,2055.99,3517.03,3355.00,3644.77,349.34,317.27,5.36,0000 0000 0000 0000 000000
2013-07-09 01:25:09,0.01,0.01,0.00,24.37,28.80,31.13,5.88,31.54,1001.49,2055.99,3517.01,3355.00,3644.78,350.33,317.66,5.37,0000 0000 0000 0000 000000
2013-07-09 01:26:09,0.00,0.01,0.00,24.38,28.80,31.12,5.73,31.46,1001.50,2055.98,3517.00,3355.00,3644.68,349.14,316.98,5.37,0000 0000 0000 0000 000000
2013-07-09 01:27:09,0.01,0.01,0.00,24.41,28.80,31.14,5.88,31.75,1001.52,2055.99,3517.02,3355.00,3644.62,350.31,317.93,5.38,0000 0000 0000 0000 000000
2013-07-09 01:28:10,0.01,0.01,0.00,24.42,28.80,31.14,5.88,31.42,1001.52,2055.99,3517.03,3355.00,3644.58,350.27,317.88,5.38,0000 0000 0000 0000 000000
2013-07-09 01:29:10,0.01,0.01,0.00,24.44,28.80,31.11,6.02,31.50,1001.51,2055.99,3517.04,3355.00,3644.58,350.51,318.36,5.39,0000 0000 0000 0000 000000
2013-07-09 01:30:10,-0.01,0.01,0.00,24.46,28.80,31.09,6.08,31.67,1001.49,2055.99,3517.02,3355.00,3644.69,350.54,318.07,5.40,0000 0000 0000 0000 000000
2013-07-09 01:31:10,-0.01,0.01,0.00,24.47,28.80,31.09,5.85,31.50,1001.50,2055.99,3517.00,3355.00,3644.72,350.02,317.22,5.40,0000 0000 0000 0000 000000
2013-07-09 01:32:11,0.00,0.01,0.00,24.47,28.80,31.07,5.92,31.63,1001.48,2055.98,3517.01,3355.00,3644.55,349.97,317.54,5.41,0000 0000 0000 0000 000000
2013-07-09 01:33:11,0.01,0.01,0.00,24.49,28.80,31.06,5.91,31.67,1001.49,2055.99,3517.00,3355.00,3644.27,350.28,317.80,5.41,0000 0000 0000 0000 000000
2013-07-09 01:34:11,0.02,0.01,0.00,24.52,28.80,31.07,5.88,31.71,1001.52,2055.99,3517.00,3355.00,3644.19,350.22,317.87,5.42,0000 0000 0000 0000 000000
2013-07-09 01:35:11,0.00,0.01,0.00,24.53,28.81,31.12,5.83,31.46,1001.49,2055.99,3517.00,3355.00,3644.39,349.85,317.38,5.43,0000 0000 0000 0000 000000
2013-07-09 01:36:12,-0.02,0.01,0.00,24.54,28.82,31.07,5.84,31.75,1001.49,2055.99,3517.03,3355.00,3644.36,349.15,316.54,5.43,0000 0000 0000 0000 000000
2013-07-09 01:37:12,0.00,0.01,0.00,24.55,28.82,31.09,5.96,31.67,1001.52,2055.99,3517.02,3355.00,3644.26,350.53,317.87,5.44,0000 0000 0000 0000 000000
2013-07-09 01:38:12,0.01,0.01,0.00,24.55,28.82,31.12,5.89,31.58,1001.49,2055.99,3517.00,3355.00,3644.16,350.01,317.52,5.44,0000 0000 0000 0000 000000
2013-07-09 01:39:13,0.01,0.01,0.00,24.55,28.82,31.14,5.87,31.67,1001.52,2055.99,3517.00,3355.00,3644.08,350.68,317.98,5.45,0000 0000 0000 0000 000000
2013-07-09 01:40:13,0.00,0.01,0.00,24.56,28.82,31.14,6.05,31.67,1001.51,2055.99,3517.00,3354.99,3644.04,349.58,317.10,5.45,0000 0000 0000 0000 000000
2013-07-09 01:41:13,0.01,0.01,0.00,24.58,28.82,31.16,5.95,31.71,1001.58,2055.99,3516.94,3354.75,3644.02,350.03,317.51,5.46,0000 0000 0000 0000 000000
2013-07-09 01:42:13,0.06,0.01,0.00,24.59,28.82,31.15,5.84,31.79,1001.57,2055.99,3516.87,3354.41,3644.00,350.82,318.22,5.47,0000 0000 0000 0000 000000
2013-07-09 01:43:14,0.07,0.01,0.00,24.59,28.82,31.14,5.75,31.42,1001.61,2055.99,3516.88,3354.35,3644.00,349.31,316.85,5.47,0000 0000 0000 0000 000000
2013-07-09 01:44:14,0.01,0.01,0.00,24.60,28.82,31.14,5.77,31.63,1001.60,2055.99,3516.92,3354.31,3643.98,348.96,316.27,5.48,0000 0000 0000 0000 000000
2013-07-09 01:45:14,0.01,0.01,0.00,24.61,28.82,31.14,5.93,31.42,1001.56,2055.99,3516.93,3354.19,3643.95,350.05,316.95,5.48,0000 0000 0000 0000 000000
2013-07-09 01:46:14,0.02,0.01,0.00,24.63,28.83,31.15,5.88,31.42,1001.57,2055.98,3516.90,3354.14,3643.96,349.22,317.00,5.49,0000 0000 0000 0000 000000
2013-07-09 01:47:14,0.00,0.01,0.00,24.63,28.84,31.15,6.01,31.71,1001.57,2055.99,3516.67,3354.07,3643.74,350.04,317.46,5.50,0000 0000 0000 0000 000000
2013-07-09 01:48:15,0.11,0.01,0.00,24.64,28.85,31.15,5.78,31.67,1001.56,2055.99,3516.25,3353.98,3643.27,349.03,316.53,5.50,0000 0000 0000 0000 000000
2013-07-09 01:49:15,0.09,0.01,0.00,24.64,28.85,31.15,5.98,31.63,1001.64,2055.98,3516.09,3353.86,3643.10,350.09,317.80,5.51,0000 0000 0000 0000 000000
2013-07-09 01:50:15,0.07,0.01,0.00,24.65,28.85,31.14,6.01,31.67,1001.71,2055.99,3516.03,3353.68,3643.03,350.89,318.26,5.51,0000 0000 0000 0000 000000
2013-07-09 01:51:16,0.03,0.01,0.00,24.65,28.85,31.16,5.82,31.17,1001.76,2055.99,3516.01,3353.59,3643.01,350.04,317.49,5.52,0000 0000 0000 0000 000000
2013-07-09 01:52:16,0.02,0.01,0.00,24.66,28.86,31.16,5.91,31.54,1001.83,2055.99,3516.00,3353.39,3643.00,350.02,317.47,5.52,0000 0000 0000 0000 000000
2013-07-09 01:53:16,0.03,0.01,0.00,24.68,28.87,31.17,6.04,31.75,1001.85,2055.99,3516.00,3353.33,3642.99,349.89,317.22,5.53,0000 0000 0000 0000 000000
2013-07-09 01:54:16,0.01,0.01,0.00,24.70,28.87,31.17,5.98,31.71,1001.90,2055.99,3516.00,3353.22,3642.98,350.71,318.21,5.54,0000 0000 0000 0000 000000
2013-07-09 01:55:17,0.01,0.01,0.00,24.72,28.87,31.17,5.84,31.58,1001.86,2055.99,3516.00,3353.14,3642.97,350.32,317.27,5.54,0000 0000 0000 0000 000000
2013-07-09 01:56:17,0.01,0.01,0.00,24.73,28.88,31.17,5.85,31.33,1001.85,2055.99,3516.00,3353.12,3642.97,349.29,317.04,5.55,0000 0000 0000 0000 000000
2013-07-09 01:57:17,0.01,0.01,0.00,24.74,28.89,31.17,5.85,31.50,1001.82,2055.99,3516.00,3353.08,3642.98,349.77,317.19,5.55,0000 0000 0000 0000 000000
2013-07-09 01:58:17,0.00,0.01,0.00,24.75,28.90,31.19,5.87,31.46,1001.85,2055.97,3516.00,3353.05,3642.94,349.63,316.94,5.56,0000 0000 0000 0000 000000
2013-07-09 01:59:18,0.00,0.01,0.00,24.76,28.90,31.19,5.79,31.21,1001.86,2055.95,3516.00,3353.06,3642.86,349.09,316.54,5.57,0000 0000 0000 0000 000000
2013-07-09 02:00:18,0.00,0.01,0.00,24.77,28.90,31.20,5.98,31.67,1001.92,2055.93,3515.99,3353.05,3642.77,350.21,317.58,5.57,0000 0000 0000 0000 000000
2013-07-09 02:01:18,0.00,0.01,0.00,24.78,28.90,31.20,5.81,31.46,1001.93,2055.94,3515.99,3353.02,3642.53,349.32,316.77,5.58,0000 0000 0000 0000 000000
2013-07-09 02:02:18,0.04,0.02,0.00,24.78,28.92,31.20,5.83,31.42,1001.95,2055.94,3515.99,3353.00,3642.41,350.07,317.45,5.58,0000 0000 0000 0000 000000
2013-07-09 02:03:19,0.02,0.02,0.00,24.79,28.92,31.21,5.92,31.42,1001.96,2055.90,3515.97,3353.00,3642.19,350.18,317.92,5.59,0000 0000 0000 0000 000000
2013-07-09 02:04:19,0.00,0.02,0.00,24.80,28.92,31.22,5.91,31.25,1001.97,2055.93,3515.97,3353.00,3642.13,350.42,317.76,5.59,0000 0000 0000 0000 000000
2013-07-09 02:05:19,-0.01,0.01,0.00,24.80,28.93,31.22,5.80,31.25,1001.96,2055.85,3515.93,3353.00,3642.13,349.71,317.10,5.60,0000 0000 0000 0000 000000
2013-07-09 02:06:20,-0.01,0.01,0.00,24.82,28.95,31.22,5.91,31.29,1001.97,2055.86,3515.91,3353.00,3642.10,350.86,318.13,5.61,0000 0000 0000 0000 000000
2013-07-09 02:07:20,0.00,0.01,0.00,24.82,28.95,31.22,5.88,31.21,1001.97,2055.81,3515.91,3353.00,3642.05,349.66,317.85,5.61,0000 0000 0000 0000 000000
2013-07-09 02:08:20,-0.05,0.01,0.00,24.84,28.95,31.22,5.89,31.13,1001.97,2055.70,3515.78,3353.00,3642.03,350.45,317.93,5.62,0000 0000 0000 0000 000000
2013-07-09 02:09:20,-0.04,0.01,0.00,24.84,28.96,31.23,5.88,31.17,1001.97,2055.54,3515.51,3353.00,3642.01,350.52,317.79,5.62,0000 0000 0000 0000 000000
2013-07-09 02:10:21,-0.08,0.01,0.00,24.86,28.97,31.24,5.87,31.21,1001.97,2055.49,3515.44,3352.99,3642.00,350.59,318.20,5.63,0000 0000 0000 0000 000000
2013-07-09 02:11:21,-0.03,0.01,0.00,24.87,28.97,31.24,5.77,31.21,1001.97,2055.43,3515.51,3352.96,3642.00,350.30,317.42,5.64,0000 0000 0000 0000 000000
2013-07-09 02:12:21,-0.05,0.01,0.00,24.87,28.97,31.26,5.92,31.21,1001.97,2055.38,3515.30,3352.93,3642.00,350.72,318.03,5.64,0000 0000 0000 0000 000000
2013-07-09 02:13:22,0.03,0.01,0.00,25.37,28.99,31.29,5.85,31.21,1001.97,2055.39,3515.17,3352.93,3642.00,349.94,316.70,5.65,0000 0000 0000 0000 000000
2013-07-09 02:14:22,-0.02,0.01,0.00,25.94,29.00,31.28,5.82,30.96,1001.97,2055.26,3515.20,3352.91,3641.99,349.30,315.69,5.65,0000 0000 0000 0000 000000
2013-07-09 02:15:22,-0.07,0.01,0.00,25.54,29.00,31.27,5.80,31.00,1001.97,2055.18,3515.20,3352.88,3641.98,349.18,315.81,5.66,0000 0000 0000 0000 000000
2013-07-09 02:16:23,-0.03,0.01,0.00,25.31,29.00,31.27,5.84,31.29,1001.97,2055.16,3515.12,3352.75,3641.98,349.66,315.95,5.67,0000 0000 0000 0000 000000
2013-07-09 02:17:23,0.01,0.01,0.00,25.23,29.02,31.28,5.79,31.33,1001.97,2055.07,3515.05,3352.42,3641.96,348.63,315.67,5.67,0000 0000 0000 0000 000000
2013-07-09 02:18:23,0.00,0.01,0.00,25.19,29.02,31.28,5.83,31.33,1001.97,2055.05,3515.03,3352.28,3641.93,349.08,316.43,5.68,0000 0000 0000 0000 000000
2013-07-09 02:19:23,0.01,0.01,0.00,25.14,29.02,31.28,5.78,31.25,1001.97,2055.02,3515.02,3352.14,3641.67,350.23,317.22,5.68,0000 0000 0000 0000 000000
2013-07-09 02:20:23,0.04,0.01,0.00,25.11,29.03,31.29,5.84,30.92,1001.97,2055.00,3515.00,3352.07,3641.42,349.77,316.82,5.69,0000 0000 0000 0000 000000
2013-07-09 02:21:24,0.01,0.01,0.00,25.10,29.05,31.29,5.92,31.08,1001.97,2055.01,3515.00,3352.05,3641.46,349.87,316.80,5.69,0000 0000 0000 0000 000000
2013-07-09 02:22:24,0.01,0.01,0.00,25.08,29.05,31.31,5.83,31.04,1001.97,2055.01,3515.00,3352.05,3641.28,349.33,316.72,5.70,0000 0000 0000 0000 000000
2013-07-09 02:23:24,0.02,0.01,0.00,25.07,29.05,31.31,5.94,31.17,1001.97,2055.00,3514.99,3352.02,3641.11,350.04,317.40,5.71,0000 0000 0000 0000 000000
2013-07-09 02:24:24,0.01,0.01,0.00,25.05,29.06,31.32,5.81,31.00,1001.97,2055.00,3514.99,3352.01,3641.05,349.88,316.99,5.71,0000 0000 0000 0000 000000
2013-07-09 02:25:25,0.00,0.01,0.00,25.05,29.07,31.33,5.76,31.00,1001.97,2055.00,3514.99,3352.00,3641.02,349.12,316.49,5.72,0000 0000 0000 0000 000000
2013-07-09 02:26:25,0.00,0.01,0.00,25.05,29.07,31.33,5.91,31.04,1001.97,2055.00,3514.95,3352.00,3641.01,350.81,318.01,5.72,0000 0000 0000 0000 000000
2013-07-09 02:27:25,0.01,0.01,0.00,25.05,29.08,31.35,5.94,31.46,1001.97,2055.00,3514.73,3351.99,3641.00,350.26,317.34,5.73,0000 0000 0000 0000 000000
2013-07-09 02:28:25,0.04,0.01,0.00,25.05,29.10,31.35,5.90,31.33,1001.97,2055.00,3514.53,3351.97,3641.00,348.60,315.40,5.74,0000 0000 0000 0000 000000
2013-07-09 02:29:25,0.02,0.01,0.00,25.06,29.10,31.36,5.89,31.13,1001.97,2055.00,3514.57,3351.96,3640.99,349.16,316.33,5.74,0000 0000 0000 0000 000000
2013-07-09 02:30:26,-0.01,0.01,0.00,25.06,29.10,31.36,5.80,31.08,1001.97,2055.00,3514.61,3351.96,3640.99,349.21,316.38,5.75,0000 0000 0000 0000 000000
2013-07-09 02:31:26,-0.00,0.01,0.00,25.07,29.12,31.38,5.94,31.38,1001.97,2055.00,3514.48,3351.97,3640.99,349.41,317.05,5.75,0000 0000 0000 0000 000000
2013-07-09 02:32:26,0.02,0.01,0.00,25.07,29.12,31.38,5.87,31.00,1001.97,2055.00,3514.33,3351.96,3640.97,350.03,317.11,5.76,0000 0000 0000 0000 000000
2013-07-09 02:33:26,0.03,0.01,0.00,25.08,29.12,31.39,5.87,31.04,1001.97,2054.99,3514.28,3351.91,3640.95,350.04,317.88,5.77,0000 0000 0000 0000 000000
2013-07-09 02:34:27,0.01,0.01,0.00,25.07,29.14,31.40,5.91,31.00,1001.97,2054.99,3514.15,3351.66,3640.87,349.90,316.99,5.77,0000 0000 0000 0000 000000
2013-07-09 02:35:27,0.06,0.01,0.00,25.08,29.15,31.41,5.83,31.08,1001.97,2054.98,3514.05,3351.57,3640.92,349.45,316.58,5.78,0000 0000 0000 0000 000000
2013-07-09 02:36:27,0.03,0.02,0.00,25.09,29.15,31.42,6.02,31.17,1001.97,2054.98,3514.02,3351.34,3640.66,350.53,317.44,5.78,0000 0000 0000 0000 000000
2013-07-09 02:37:27,0.08,0.02,0.00,25.10,29.16,31.43,5.86,31.21,1001.97,2054.95,3514.00,3351.14,3640.32,348.64,316.02,5.79,0000 0000 0000 0000 000000